Flag for United Kingdom Weather past 2 weeks in Exeter, England, United Kingdom

Now
43 °F

Haze.


Feels Like: 40 °F
Forecast: 42 / 64 °F
Wind: 5 mph from North

Location: Yeovilton

Current Time: Apr 21, 2015 at 4:42:55 AM

Latest Report: Apr 21, 2015 at 3:50 AM


Visibility: 6 mi

Pressure: 30.48 "Hg

Humidity: 87%

Dew point: 39 °F

Location of ExeterLocation

Historic Weather in Exeter — Graph

°F

Exeter temperature yesterday

Maximum temperature yesterday: 64 °F (at 3:50 PM)
Minimum temperature yesterday: 34 °F (at 3:50 AM)
Average temperature yesterday: 50 °F

Past Weeks' High & Low Weather Summary

 TemperatureHumidityPressure
High68 °F (Apr 16, 4:50 PM)100% (Apr 6, 3:50 AM)30.66 "Hg (Apr 6, 3:50 AM)
Low30 °F (Apr 6, 5:50 AM)37% (Apr 10, 1:50 PM)29.86 "Hg (Apr 16, 5:50 PM)
Average50 °F75%30.26 "Hg
* Reported Apr 6 2:50 AM — Apr 21 2:50 AM, Exeter, Weather by CustomWeather, © 2015

Note: Actual official high and low records may vary slightly from our data, if they occured in-between our weather recording intervals... More about our weather records

Advertising

Exeter weather history for previous 24 hours

 ConditionsComfort  
Time TempWeatherWind HumidityBarometerVisibility
2:50 AM
Tue, Apr 21
43 °FClear.1 mph87%30.48 "Hg10 mi
1:50 AM45 °FClear.6 mph81%30.48 "Hg10 mi
12:50 AM48 °FClear.5 mph76%30.48 "Hg10 mi
11:50 PM
Mon, Apr 20
50 °FClear.3 mph76%30.45 "Hg10 mi
10:50 PM52 °FClear.5 mph72%30.45 "Hg10 mi
9:50 PM55 °FClear.8 mph63%30.45 "Hg10 mi
7:50 PM61 °FSunny.9 mph52%30.39 "Hg10 mi
6:50 PM63 °FSunny.10 mph49%30.39 "Hg10 mi
5:50 PM64 °FSunny.7 mph43%30.36 "Hg10 mi
4:50 PM64 °FSunny.8 mph40%30.36 "Hg10 mi
3:50 PM64 °FSunny.9 mph40%30.39 "Hg10 mi
2:50 PM63 °FSunny.10 mph42%30.39 "Hg10 mi
1:50 PM61 °FSunny.12 mph52%30.39 "Hg10 mi
12:50 PM59 °FSunny.10 mph51%30.39 "Hg10 mi
11:50 AM55 °FSunny.10 mph59%30.39 "Hg10 mi
10:50 AM54 °FSunny.9 mph63%30.39 "Hg10 mi
9:50 AM50 °FPassing clouds.12 mph71%30.39 "HgN/A
8:50 AM45 °FPassing clouds.9 mph81%30.39 "HgN/A
7:50 AM37 °FPassing clouds.1 mph100%30.36 "HgN/A
6:50 AM34 °FFog.1 mph93%30.33 "Hg5 mi
5:50 AM34 °FFog.1 mph93%30.33 "Hg4 mi
4:50 AM34 °FFog.2 mph93%30.30 "HgN/A
Weather by CustomWeather, © 2015

See weather overviewHow to use our weather pages